Content
SEND FEEDBACK

Daily
Averages
Monthly
Summary
United States of America

NELCHINA, ALASKA


Home > North America > United States > Alaska
Elevation: 2450 feet     Latitude: 61 59N     Longitude: 146 47W

WEATHER
 
SELECT A DAY
Number of Records: 425,606;   Date Range: 7/8/95 - 10/23/14
 
SHARE

PRINT THIS DATA

[ ← Previous Day ]
WEATHER ALMANAC - JANUARY 31, 2013
[ Next Day → ]
[ °C ]   °F
Weather ElementAverageHighLow
Temperature18.9 °F26.6 °F (12:56 pm)6.8 °F (12:36 am)
Dewpoint18 °F26.6 °F (12:56 pm)6.8 °F (12:36 am)
Humidity96.5 %100 % (12:36 am)86 % (10:56 pm)
Barometer29.69 in29.83 in (11:36 pm)29.59 in (12:36 am)
Wind Speed4.8 mph10.4 mph (11:16 pm)
Weather ElementAverage
Visibility6.9 mi
Wind DirectionSE (138.3 °)

Weather ElementTotal
Precipitation---
Heating Degree Days48.3 (Base 65)
Averaged from 71 records on January 31, 2013
WEATHER CONDITIONS BREAKOUT
WIND DIRECTION BREAKOUT
WEATHER BY HOUR - JANUARY 31, 2013
[ °C ]   °F
Local TimeTemperatureDewpointHumidityBarometerVisibilityWind DirectionWind SpeedGust SpeedPrecipitationEventsConditions
12:36 AM6.8 °F6.8 °F100 %29.59 in10.0 miCalmPartly Cloudy
12:56 AM8.6 °F8.6 °F100 %29.59 in10.0 miCalmMostly Cloudy
1:16 AM12.2 °F12.2 °F100 %29.60 in10.0 miSE (130°)3.5 mphOvercast
1:36 AM8.6 °F8.6 °F100 %29.60 in10.0 miNNE (20°)5.8 mphMostly Cloudy
1:56 AM8.6 °F8.6 °F100 %29.60 in10.0 miNE (40°)3.5 mphPartly Cloudy
2:16 AM8.6 °F8.6 °F100 %29.60 in10.0 miNE (40°)4.6 mphClear
2:36 AM10.4 °F10.4 °F100 %29.61 in10.0 miNNE (30°)3.5 mphPartly Cloudy
2:56 AM10.4 °F8.6 °F92 %29.60 in10.0 miNE (50°)4.6 mphClear
3:16 AM12.2 °F10.4 °F92 %29.60 in10.0 miNE (40°)5.8 mphMostly Cloudy
3:36 AM12.2 °F12.2 °F100 %29.60 in10.0 miNNE (30°)4.6 mphOvercast
3:56 AM14.0 °F12.2 °F93 %29.60 in10.0 miNorth (10°)3.5 mphOvercast
4:16 AM12.2 °F10.4 °F92 %29.60 in10.0 miCalmOvercast
4:36 AM14.0 °F12.2 °F93 %29.60 in10.0 miCalmOvercast
4:56 AM17.6 °F15.8 °F93 %29.60 in10.0 miCalmOvercast
5:16 AM17.6 °F15.8 °F93 %29.60 in10.0 miCalmOvercast
5:36 AM17.6 °F15.8 °F93 %29.60 in10.0 miCalmOvercast
5:56 AM15.8 °F14.0 °F93 %29.61 in10.0 miCalmOvercast
6:16 AM17.6 °F15.8 °F93 %29.61 in10.0 miCalmOvercast
6:36 AM17.6 °F17.6 °F100 %29.61 in10.0 miCalmOvercast
6:56 AM17.6 °F17.6 °F100 %29.61 in10.0 miCalmMostly Cloudy
7:16 AM17.6 °F17.6 °F100 %29.61 in9.0 miSouth (190°)4.6 mphMostly Cloudy
7:36 AM19.4 °F17.6 °F93 %29.61 in10.0 miSW (220°)3.5 mphScattered Clouds
7:56 AM19.4 °F19.4 °F100 %29.61 in10.0 miCalmMostly Cloudy
8:16 AM21.2 °F21.2 °F100 %29.61 in3.0 miCalmOvercast
8:36 AM19.4 °F17.6 °F93 %29.62 in1.5 miCalmMostly Cloudy
8:56 AM19.4 °F19.4 °F100 %29.63 in9.0 miCalmMostly Cloudy
9:16 AM19.4 °F17.6 °F93 %29.64 in10.0 miCalmOvercast
9:36 AM19.4 °F17.6 °F93 %29.65 in8.0 miCalmOvercast
9:56 AM21.2 °F21.2 °F100 %29.65 in0.2 miCalmOvercast
10:16 AM23.0 °F23.0 °F100 %29.66 in0.2 miWNW (300°)3.5 mphOvercast
10:36 AM21.2 °F21.2 °F100 %29.67 in0.2 miWest (280°)4.6 mphOvercast
10:56 AM23.0 °F23.0 °F100 %29.67 in0.2 miWSW (250°)5.8 mphOvercast
11:16 AM23.0 °F23.0 °F100 %29.68 in0.2 miWSW (250°)4.6 mphOvercast
11:36 AM24.8 °F24.8 °F100 %29.69 in0.2 miWest (280°)6.9 mphOvercast
11:56 AM24.8 °F23.0 °F93 %29.69 in3.0 miWest (260°)5.8 mphOvercast
12:16 PM24.8 °F23.0 °F93 %29.69 in10.0 miWest (260°)8.1 mphOvercast
12:36 PM24.8 °F23.0 °F93 %29.70 in10.0 miWest (260°)6.9 mphOvercast
12:56 PM26.6 °F26.6 °F100 %29.71 in10.0 miWest (270°)6.9 mphMostly Cloudy
1:16 PM24.8 °F23.0 °F93 %29.71 in10.0 miWest (260°)9.2 mphMostly Cloudy
1:36 PM24.8 °F24.8 °F100 %29.72 in10.0 miWest (260°)9.2 mphMostly Cloudy
1:56 PM24.8 °F24.8 °F100 %29.73 in2.0 miWest (260°)9.2 mphOvercast
2:16 PM24.8 °F24.8 °F100 %29.73 in0.2 miWest (280°)8.1 mphOvercast
2:36 PM24.8 °F24.8 °F100 %29.73 in0.2 miWest (270°)8.1 mphOvercast
2:56 PM24.8 °F24.8 °F100 %29.74 in5.0 miWest (270°)9.2 mphOvercast
3:16 PM24.8 °F24.8 °F100 %29.74 in4.0 miWest (280°)8.1 mphMostly Cloudy
3:36 PM23.0 °F21.2 °F93 %29.75 in2.5 miWest (270°)9.2 mphMostly Cloudy
3:56 PM23.0 °F23.0 °F100 %29.75 in10.0 miWest (280°)9.2 mphClear
4:16 PM23.0 °F21.2 °F93 %29.76 in2.0 miWNW (290°)8.1 mphMostly Cloudy
4:36 PM21.2 °F21.2 °F100 %29.76 in0.8 miWest (280°)9.2 mphMostly Cloudy
4:56 PM21.2 °F19.4 °F93 %29.76 in1.8 miWest (280°)9.2 mphClear
5:16 PM21.2 °F19.4 °F93 %29.76 in6.0 miWest (270°)8.1 mphClear
5:36 PM21.2 °F19.4 °F93 %29.76 in6.0 miWest (280°)8.1 mphClear
5:56 PM21.2 °F21.2 °F100 %29.76 in10.0 miWNW (290°)9.2 mphClear
6:16 PM21.2 °F19.4 °F93 %29.77 in10.0 miWest (280°)8.1 mphPartly Cloudy
6:36 PM19.4 °F19.4 °F100 %29.77 in10.0 miWest (270°)5.8 mphScattered Clouds
6:56 PM19.4 °F17.6 °F93 %29.77 in10.0 miWest (260°)9.2 mphOvercast
7:16 PM19.4 °F17.6 °F93 %29.78 in10.0 miWest (270°)8.1 mphScattered Clouds
7:36 PM19.4 °F17.6 °F93 %29.78 in10.0 miWest (260°)5.8 mphClear
7:56 PM21.2 °F19.4 °F93 %29.78 in10.0 miWSW (250°)6.9 mphClear
8:16 PM19.4 °F19.4 °F100 %29.79 in10.0 miWSW (240°)6.9 mphClear
8:36 PM19.4 °F17.6 °F93 %29.79 in10.0 miCalmClear
8:56 PM15.8 °F15.8 °F100 %29.79 in10.0 miNorth (360°)4.6 mphClear
9:16 PM17.6 °F17.6 °F100 %29.80 in10.0 miNorth (10°)3.5 mphClear
9:36 PM19.4 °F17.6 °F93 %29.80 in10.0 miNE (40°)3.5 mphClear
9:56 PM17.6 °F17.6 °F100 %29.81 in5.0 miNE (50°)4.6 mphClear
10:16 PM15.8 °F14.0 °F93 %29.81 in1.0 miNE (50°)6.9 mphMostly Cloudy
10:36 PM15.8 °F14.0 °F93 %29.81 in4.0 miNE (40°)6.9 mphScattered Clouds
10:56 PM17.6 °F14.0 °F86 %29.82 in0.5 miNE (40°)6.9 mphOvercast
11:16 PM19.4 °F19.4 °F100 %29.82 in2.5 miNNE (20°)10.4 mphOvercast
11:36 PM21.2 °F21.2 °F100 %29.83 in0.8 miNorth (10°)8.1 mphOvercast
11:56 PM21.2 °F19.4 °F93 %29.83 in1.0 miNE (40°)5.8 mphOvercast
Hourly data recorded from PAZK, located miles away from Nelchina, Alaska







STORIES FROM OUR PARTNERS